PDT,Max TemperatureF,Mean TemperatureF,Min TemperatureF,Max Dew PointF,MeanDew PointF,Min DewpointF,Max Humidity, Mean Humidity, Min Humidity, Max Sea Level PressureIn, Mean Sea Level PressureIn, Min Sea Level PressureIn, Max VisibilityMiles, Mean VisibilityMiles, Min VisibilityMiles, Max Wind SpeedMPH, Mean Wind SpeedMPH, Max Gust SpeedMPH,PrecipitationIn, CloudCover, Events, WindDirDegrees
2013-8-1,82,63,44,52,48,43,100,67,33,30.02,29.98,29.91,10,7,0,15,4,21,0.00,0,Fog,156
2013-8-2,85,66,46,51,49,44,93,61,28,29.96,29.90,29.84,10,10,7,15,5,18,0.00,0,Fog,171
2013-8-3,78,64,49,54,51,46,100,72,43,29.97,29.93,29.89,10,6,0,14,6,17,0.00,5,Fog,168
2013-8-4,75,63,51,54,51,49,100,73,46,30.00,29.97,29.92,10,9,3,15,6,20,0.00,5,,169
2013-8-5,72,62,51,54,51,49,100,75,49,30.02,29.97,29.92,10,8,2,15,5,18,0.00,5,,173
2013-8-6,75,64,52,53,51,49,100,75,49,30.03,29.99,29.96,10,8,2,16,5,18,0.00,6,,175
2013-8-7,70,62,54,55,54,51,93,76,59,30.08,30.04,30.01,10,10,6,13,4,18,0.00,6,,193
2013-8-8,74,62,50,56,53,48,100,77,53,30.02,29.98,29.92,10,7,0,14,5,18,0.01,5,Fog,188
2013-8-9,74,64,53,55,53,51,93,71,49,29.97,29.93,29.90,10,9,3,14,5,21,0.00,5,,163
2013-8-10,78,67,55,56,54,52,93,69,45,30.04,29.99,29.96,10,10,10,13,5,16,0.00,5,,179
2013-8-11,80,67,54,57,54,52,100,73,45,30.02,29.98,29.90,10,6,2,16,6,18,0.00,6,,156
2013-8-12,80,67,53,55,53,51,100,71,42,29.99,29.95,29.91,10,5,1,15,4,17,0.00,5,,166
2013-8-13,91,72,52,57,53,51,100,64,28,29.98,29.93,29.86,10,8,0,15,4,17,0.00,3,Fog,172
2013-8-14,94,71,48,58,52,47,93,58,23,29.95,29.90,29.83,10,10,7,16,4,20,0.00,0,,157
2013-8-15,90,72,53,63,57,52,100,69,38,29.92,29.90,29.87,10,9,0,14,4,16,0.00,1,Fog,168
2013-8-16,91,74,56,62,57,54,100,65,29,29.97,29.93,29.89,10,6,0,16,5,18,0.00,3,Fog,171
2013-8-17,89,71,52,58,55,51,93,63,32,29.95,29.89,29.80,10,10,10,14,4,17,0.00,0,,165
2013-8-18,95,74,53,60,56,51,93,62,30,29.86,29.80,29.73,10,10,9,14,4,18,0.00,0,,170
2013-8-19,86,72,58,59,56,54,93,65,37,29.88,29.83,29.78,10,9,5,15,4,17,0.00,2,,175
2013-8-20,81,70,58,58,56,55,93,68,42,29.89,29.85,29.79,10,10,9,14,5,18,0.00,6,,188
2013-8-21,77,65,52,56,54,51,93,70,46,29.95,29.89,29.84,10,9,5,15,6,17,0.00,4,,188
2013-8-22,76,65,53,56,53,51,93,70,46,29.97,29.91,29.86,10,9,3,12,5,16,0.00,4,,179
2013-8-23,81,67,52,56,54,52,93,68,42,29.91,29.85,29.77,10,10,7,15,4,18,0.00,4,,166
2013-8-24,87,69,50,56,53,48,100,69,37,29.86,29.83,29.78,10,8,0,18,6,24,0.00,2,Fog,168
2013-8-25,79,68,56,60,57,54,90,69,48,29.93,29.89,29.86,10,10,10,13,6,18,0.00,3,,171
2013-8-26,84,70,56,58,56,52,93,64,34,30.01,29.94,29.86,10,8,2,12,3,16,0.01,4,,179
2013-8-27,89,69,49,57,52,47,93,61,29,29.87,29.83,29.77,10,10,8,13,4,17,0.00,0,,181
2013-8-28,85,71,56,61,57,55,100,72,44,29.91,29.86,29.83,10,5,0,14,5,18,0.00,2,Fog,161
2013-8-29,87,74,60,62,59,58,97,69,40,30.05,29.98,29.93,10,9,3,13,3,16,0.00,4,,177
2013-8-30,95,75,54,60,56,52,100,62,24,30.02,29.97,29.86,10,7,0,14,3,17,0.00,0,Fog,185
2013-8-31,88,70,51,57,54,50,96,64,31,29.94,29.90,29.85,10,10,10,17,5,22,0.00,0,,154